sat.trackr.live / text

‹ back to catalog

STARLINK-34328

NORAD 64220 · 2025-117T

PAYLOAD ACTIVE UNKNOWN

§ Identity

Operator
Country
US
Launch date
2025-05-31
Launch site
AFWTR
Launch vehicle
Mass (kg)
RCS (m²)

Purposes: comms

External: N2YO · Heavens-Above · Gunter

§ Orbital elements

Epoch: 2026-05-25T02:14:08.314656Z

Period
94.11 min
Inclination
53.1590°
Eccentricity
0.0000873
Mean motion
15.30203970 rev/d
Perigee alt
474.6 km
Apogee alt
475.8 km
Semi-major
6,853.3 km
B*
4.9143e-4
RAAN
44.6969°
Arg perigee
102.3204°
Mean anomaly
257.7894°
Rev number
5,622

§ Raw data

STARLINK-343281 64220U 25117T   26145.09315179  .00014225  00000+0  49143-3 0  99902 64220  53.1590  44.6969 0000873 102.3204 257.7894 15.30203970 56224

JSON: /api/v1/satellites/64220 · /tle

For live sub-satellite position, see the globe view (requires WebGL).

§ Visibility from observer

Set your observer location to see the next 7 days of passes ≥ 10°. The values pass through the URL so the page stays shareable.

No JS? Fill the form by hand. The geolocation button needs JavaScript.